Location: Azul
(36.7830°S, 59.8500°W)
Time: 00:18:09
(UTC-03:00)

TIGRISAT - Pass Details

Date: 01 November 2021
Orbit: 603 x 689 km, 97.7° (Epoch: 27 November)

Event Time Altitude Azimuth Distance (km) Brightness Sun altitude
Rises 20:20:35 0° 332° (NNW) 2,857 ? -9.6°
Reaches altitude 10° 20:23:31 10° 310° (NW) 1,973 ? -10.2°
Maximum altitude 20:26:07 16° 272° (W) 1,648 ? -10.6°
Drops below altitude 10° 20:28:46 10° 235° (SW) 2,013 ? -11.1°
Sets 20:31:49 0° 212° (SSW) 2,948 ? -11.6°
